Location: Brantley
(31.5822°N, 86.2569°W)
Time: 02:00:54
(UTC+00:00)

Transit 2A Rocket - Pass Details

Date: 21 February 2026
Orbit: 583 x 900 km, 66.7° (Epoch: 5 March)

Event Time Altitude Azimuth Distance (km) Brightness Sun altitude
Rises 21:21:40 0° 235° (SW) 3,461 9.7 25.9°
Reaches altitude 10° 21:24:31 10° 248° (WSW) 2,550 9.5 25.4°
Maximum altitude 21:29:29 27° 304° (NW) 1,659 7.3 24.4°
Drops below altitude 10° 21:34:31 10° 1° (N) 2,568 7.5 23.5°
Sets 21:37:25 0° 13° (NNE) 3,490 8.0 23.0°
